This is the latest recevied weather packets stored in our database for station/object JA6CFI-13. If no packets are shown the sender has not sent any weather packets the latest 10 day(s).
| Time | Temp. | Humidity | Pressure | Rain* | Wind** | Luminosity | Snow |
|---|---|---|---|---|---|---|---|
| 1777943121 | 21.11° C | 43% | 1020 hPa | 0 mm | - | - | - |
| 1777942342 | 21.11° C | 52% | 1020 hPa | 0 mm | - | - | - |
| 1777941561 | 20.56° C | 54% | 1020 hPa | 0 mm | - | - | - |
| 1777940781 | 20° C | 58% | 1020 hPa | 0 mm | - | - | - |
| 1777940001 | 19.44° C | 60% | 1020 hPa | 0 mm | - | - | - |
| 1777939221 | 18.89° C | 61% | 1020.1 hPa | 0 mm | - | - | - |
| 1777938441 | 18.33° C | 66% | 1020.1 hPa | 0 mm | - | - | - |
| 1777937661 | 17.78° C | 67% | 1020.2 hPa | 0 mm | - | - | - |
| 1777936880 | 17.78° C | 69% | 1020.2 hPa | 0 mm | - | - | - |
| 1777936102 | 16.67° C | 70% | 1020.1 hPa | 0 mm | - | - | - |
| 1777935320 | 16.67° C | 71% | 1019.9 hPa | 0 mm | - | - | - |
| 1777934541 | 15.56° C | 75% | 1019.8 hPa | 0 mm | - | - | - |
| 1777933761 | 14.44° C | 81% | 1019.8 hPa | 0 mm | - | - | - |
| 1777932980 | 13.33° C | 88% | 1019.9 hPa | 0 mm | - | - | - |
| 1777932201 | 12.78° C | 91% | 1019.8 hPa | 0 mm | - | - | - |
| 1777931421 | 11.67° C | 93% | 1019.8 hPa | 0 mm | - | - | - |
| 1777930640 | 11.11° C | 93% | 1019.7 hPa | 0 mm | - | - | - |
| 1777929862 | 10.56° C | 93% | 1019.7 hPa | 0 mm | - | - | - |
| 1777929081 | 10.56° C | 93% | 1019.6 hPa | 0 mm | - | - | - |
| 1777928301 | 10.56° C | 93% | 1019.3 hPa | 0 mm | - | - | - |
| 1777927521 | 10.56° C | 93% | 1019.2 hPa | 0 mm | - | - | - |
| 1777926740 | 10.56° C | 93% | 1019.2 hPa | 0 mm | - | - | - |
| 1777925962 | 10.56° C | 93% | 1019.1 hPa | 0 mm | - | - | - |
| 1777925181 | 10.56° C | 93% | 1019 hPa | 0 mm | - | - | - |
| 1777924401 | 10.56° C | 93% | 1018.8 hPa | 0 mm | - | - | - |
* Rain latest hour (hover to see other rain measurements)
** Current wind speed in m/s (hover to see current wind gust speed)